GW2749 Weather Reports


time (UTC)temp
C
wind
direction
speed
KPH
gust
KPH
rain 1hr
cm
rain 24hr
cm
rain mn
cm
humidity
%
barometer
mb
20260506014551 24 38 14.5 24.1 0.00 0.00 0.00 19 1010.5
20260506013053 23 38 11.3 17.7 0.00 0.00 0.00 21 1010.4
20260506011554 23 39 14.5 35.4 0.00 0.00 0.00 20 1010.3
20260506010056 23 39 24.1 35.4 0.00 0.00 0.00 20 1010.2
20260506004556 24 39 6.4 12.9 0.00 0.00 0.00 23 1010.1
20260506003046 24 39 1.6 9.7 0.00 0.00 0.00 22 1009.9
20260506001604 23 0 0.0 9.7 0.00 0.00 0.00 23 1010.1
20260506000053 23 18 0.0 6.4 0.00 0.00 0.00 24 1010.1
20260505234607 23 0 0.0 6.4 0.00 0.00 0.00 23 1010.0
20260505233050 23 0 1.6 9.7 0.00 0.00 0.00 23 1009.9
20260505231553 23 0 4.8 11.3 0.00 0.00 0.00 23 1009.9
20260505230052 24 0 4.8 14.5 0.00 0.00 0.00 24 1009.9
20260505224549 23 39 1.6 8.0 0.00 0.00 0.00 25 1010.1
20260505223104 24 348 4.8 17.7 0.00 0.00 0.00 24 1010.4
20260505221553 24 18 3.2 19.3 0.00 0.00 0.00 25 1010.7
20260505220051 23 0 9.7 22.5 0.00 0.00 0.00 26 1010.7
20260505214559 23 17 4.8 22.5 0.00 0.00 0.00 26 1010.8
20260505213048 23 17 12.9 19.3 0.00 0.00 0.00 27 1011.2
20260505211610 23 18 8.0 25.7 0.00 0.00 0.00 27 1011.1
20260505210051 22 18 9.7 24.1 0.00 0.00 0.00 28 1011.2
20260505204549 23 0 4.8 20.9 0.00 0.00 0.00 27 1011.2
20260505203105 23 109 3.2 17.7 0.00 0.00 0.00 28 1011.3
20260505201548 22 105 3.2 11.3 0.00 0.00 0.00 28 1011.3
20260505200055 22 76 3.2 12.9 0.00 0.00 0.00 29 1011.5
20260505194549 21 18 4.8 17.7 0.00 0.00 0.00 30 1011.6
20260505193050 21 18 6.4 17.7 0.00 0.00 0.00 30 1011.9
20260505191556 21 18 9.7 14.5 0.00 0.00 0.00 32 1011.7
20260505190054 20 18 1.6 14.5 0.00 0.00 0.00 34 1011.9
20260505184555 21 18 8.0 16.1 0.00 0.00 0.00 32 1011.9
20260505183050 20 79 3.2 12.9 0.00 0.00 0.00 33 1011.7
20260505181553 20 89 9.7 19.3 0.00 0.00 0.00 34 1011.8
20260505180057 19 0 6.4 19.3 0.00 0.00 0.00 36 1011.7
20260505174552 19 0 3.2 14.5 0.00 0.00 0.00 37 1011.7
20260505173053 18 0 3.2 12.9 0.00 0.00 0.00 38 1011.8
20260505171549 18 44 3.2 8.0 0.00 0.00 0.00 41 1011.9
20260505170053 17 0 1.6 9.7 0.00 0.00 0.00 45 1011.9
20260505164553 16 0 0.0 9.7 0.00 0.00 0.00 46 1011.9
20260505163051 16 44 4.8 9.7 0.00 0.00 0.00 49 1012.0
20260505161553 15 46 3.2 9.7 0.00 0.00 0.00 53 1011.9
20260505153055 14 0 0.0 6.4 0.00 0.00 0.00 58 1011.8
20260505151556 13 0 0.0 3.2 0.00 0.00 0.00 60 1011.6
20260505140104 10 0 0.0 0.0 0.00 0.00 0.00 71 1010.9
20260505124556 6 235 3.2 6.4 0.00 0.00 0.00 81 1010.1
20260505123055 5 0 0.0 0.0 0.00 0.00 0.00 79 1010.0
20260505121551 6 0 0.0 0.0 0.00 0.00 0.00 80 1009.8
20260505120107 6 0 0.0 0.0 0.00 0.00 0.00 79 1009.5
20260505114557 7 0 0.0 4.8 0.00 0.00 0.00 76 1009.7
20260505113106 8 0 0.0 1.6 0.00 0.00 0.00 74 1009.9
20260505111550 8 18 0.0 6.4 0.00 0.00 0.00 74 1009.8
20260505101558 7 0 0.0 0.0 0.00 0.00 0.00 72 1009.4
20260505100055 7 267 4.8 8.0 0.00 0.00 0.00 72 1009.3
20260505094600 8 0 0.0 1.6 0.00 0.00 0.00 70 1009.2
20260505093056 8 116 3.2 6.4 0.00 0.00 0.00 70 1009.2
20260505091552 8 0 3.2 6.4 0.00 0.00 0.00 69 1009.1
20260505084603 7 0 1.6 4.8 0.00 0.00 0.00 70 1009.2
20260505083103 7 0 0.0 0.0 0.00 0.00 0.00 69 1009.4
20260505081556 8 0 0.0 0.0 0.00 0.00 0.00 64 1009.4
20260505080052 9 256 3.2 4.8 0.00 0.00 0.00 65 1009.3
20260505074556 9 0 0.0 4.8 0.00 0.00 0.00 64 1009.2
20260505073055 10 0 0.0 4.8 0.00 0.00 0.00 61 1009.3
20260505071550 10 0 0.0 4.8 0.00 0.00 0.00 63 1009.4
20260505070101 11 0 0.0 0.0 0.00 0.00 0.00 58 1009.3
20260505064554 12 0 0.0 6.4 0.00 0.00 0.00 58 1009.1
20260505063048 12 150 4.8 9.7 0.00 0.00 0.00 58 1008.9
20260505061611 11 162 4.8 6.4 0.00 0.00 0.00 57 1008.6
20260505060057 12 132 4.8 6.4 0.00 0.00 0.00 55 1008.7
20260505054556 12 0 0.0 6.4 0.00 0.00 0.00 56 1008.6
20260505053054 12 0 0.0 11.3 0.00 0.00 0.00 55 1008.7
20260505051558 12 0 1.6 8.0 0.00 0.00 0.00 54 1008.6
20260505041556 17 169 8.0 20.9 0.00 0.00 0.00 39 1007.9
20260505040059 17 221 8.0 19.3 0.00 0.00 0.00 38 1007.9
20260505034554 17 213 11.3 20.9 0.00 0.00 0.00 39 1008.0
20260505033059 17 18 16.1 25.7 0.00 0.00 0.00 40 1008.5
20260505031555 17 17 8.0 12.9 0.00 0.00 0.00 40 1008.2
20260505030049 17 18 12.9 27.4 0.00 0.00 0.00 41 1007.8
20260505024553 18 17 8.0 24.1 0.00 0.00 0.00 35 1007.3
20260505023052 18 18 20.9 33.8 0.00 0.00 0.00 37 1006.8
20260505021602 18 18 22.5 37.0 0.00 0.00 0.00 36 1007.0
20260505020052 18 20 22.5 43.5 0.00 0.00 0.00 38 1007.0